, TX

(GMT )
Port Isabel

Weather History for KPIL - March, 2013

Change the Weather History Date:

Friday, March 15, 2013

  Actual Average Record
Temperature  
Mean Temperature 69 °F -  
Max Temperature 81 °F - - ()
Min Temperature 57 °F - - ()
Cooling Degree Days 4    
Growing Degree Days 19 (Base 50)    
Moisture  
Dew Point 56 °F    
Average Humidity 65    
Maximum Humidity 89    
Minimum Humidity 38    
Precipitation  
Precipitation 0.00 in - - ()
Sea Level Pressure  
Sea Level Pressure 30.16 in    
Wind  
Wind Speed 10 mph (SSE)    
Max Wind Speed 22 mph    
Max Gust Speed 31 mph    
Visibility 9 miles    
Events Rain    
T = Trace of Precipitation, MM = Missing Value Source: NWS Daily Summary

Daily Weather History Graph

Daily Weather History Graph

Search for Another Location

Airport or City:

Trip Planner

Search our weather history database for the weather conditions in past years. The results will help you decide how hot, cold, wet, or windy it might be!

Date:

Astronomy

Mar. 15, 2013 Rise Set
Actual Time 7:38 AM CDT 7:38 PM CDT
Civil Twilight 7:15 AM CDT 8:01 PM CDT
Nautical Twilight 6:48 AM CDT 8:28 PM CDT
Astronomical Twilight 6:21 AM CDT 8:55 PM CDT
Moon 9:54 AM CDT (3/15) 11:25 PM CDT (3/15)
Length of Visible Light 12h 46m
Length of Day
12h 00m
Waxing Crescent, 15% of the Moon is Illuminated
Mar 15
Waxing Crescent
Mar 19
First Quarter
Mar 27
Full
Apr 2
Last Quarter
Apr 10
New

Hourly Weather History & Observations

Time (CDT) Temp. Heat Index Dew Point Humidity Pressure Visibility Wind Dir Wind Speed Gust Speed Precip Events Conditions
12:53 AM 64.0 °F - 57.0 °F 78% 30.27 in 10.0 mi SE 6.9 mph - N/A   Clear
1:53 AM 64.0 °F - 57.0 °F 78% 30.25 in 10.0 mi SE 6.9 mph - N/A   Clear
2:53 AM 63.0 °F - 57.0 °F 81% 30.23 in 10.0 mi SE 6.9 mph - N/A   Clear
3:53 AM 61.0 °F - 55.9 °F 83% 30.22 in 10.0 mi SSE 6.9 mph - N/A   Clear
4:53 AM 61.0 °F - 55.9 °F 83% 30.20 in 10.0 mi SE 5.8 mph - N/A   Clear
5:53 AM 59.0 °F - 55.0 °F 87% 30.20 in 9.0 mi South 3.5 mph - N/A   Clear
6:53 AM 57.0 °F - 54.0 °F 89% 30.20 in 8.0 mi SSE 5.8 mph - 0.00 in   Clear
7:53 AM 59.0 °F - 55.0 °F 87% 30.21 in 7.0 mi South 3.5 mph - N/A   Clear
8:53 AM 64.9 °F - 59.0 °F 81% 30.22 in 8.0 mi SE 3.5 mph - N/A   Clear
9:53 AM 73.0 °F - 59.0 °F 61% 30.23 in 8.0 mi SSE 16.1 mph - N/A   Partly Cloudy
10:53 AM 75.9 °F - 57.0 °F 52% 30.24 in 8.0 mi SSE 12.7 mph 21.9 mph N/A   Partly Cloudy
11:53 AM 77.0 °F - 55.9 °F 48% 30.22 in 8.0 mi SSE 17.3 mph 25.3 mph N/A   Partly Cloudy
12:53 PM 79.0 °F - 55.9 °F 45% 30.20 in 8.0 mi SSE 17.3 mph 26.5 mph 0.00 in   Partly Cloudy
1:53 PM 79.0 °F - 55.0 °F 44% 30.16 in 8.0 mi SSE 21.9 mph 29.9 mph 0.00 in   Partly Cloudy
2:53 PM 81.0 °F 80.4 °F 53.1 °F 38% 30.13 in 9.0 mi SSE 19.6 mph 28.8 mph 0.00 in Rain Light Rain
3:53 PM 81.0 °F 80.4 °F 53.1 °F 38% 30.10 in 8.0 mi SSE 21.9 mph 31.1 mph 0.00 in   Clear
4:53 PM 79.0 °F - 55.0 °F 44% 30.09 in 8.0 mi SSE 20.7 mph 31.1 mph 0.00 in   Clear
5:53 PM 77.0 °F - 54.0 °F 45% 30.08 in 8.0 mi SSE 19.6 mph 29.9 mph N/A   Clear
6:53 PM 73.9 °F - 55.0 °F 52% 30.07 in 8.0 mi SSE 19.6 mph 25.3 mph N/A   Clear
7:53 PM 71.1 °F - 57.9 °F 63% 30.07 in 9.0 mi SSE 15.0 mph - N/A   Clear
8:53 PM 69.1 °F - 57.9 °F 68% 30.07 in 10.0 mi SSE 11.5 mph - N/A   Clear
9:53 PM 69.1 °F - 59.0 °F 70% 30.08 in 10.0 mi SSE 9.2 mph - N/A   Clear
10:53 PM 68.0 °F - 59.0 °F 73% 30.08 in 10.0 mi SSE 8.1 mph - N/A   Clear
11:53 PM 66.0 °F - 57.9 °F 75% 30.08 in 10.0 mi South 6.9 mph - N/A   Clear